dimanche 25 novembre 2018

Le classement original se trouve sur : http://courirpourleplaisir.be
COURSES OLNOISES
OLNE - SPA - OLNE
DISTANCE 70.80 km
dimanche 25 novembre 2018
               
        www.caletclasjog.be
Place dos NOM Catég. Pl/Cat. temps temps/km Vitesse
1 258 DESCAMPS FLORIAN S 1 5:57:18 05:03 11.89
2 38 BENARD VALENTIN S 2 5:58:43 05:04 11.84
3 890 WATERVAL CLAUDE S 3 6:02:12 05:07 11.73
4 521 LAMBOTTE BENOIT S 4 6:04:46 05:09 11.65
5 384 GRIFGNEE CHRISTOPHE S 5 6:07:02 05:11 11.57
6 429 HERREGODTS ARON-LEVI S 6 6:08:15 05:12 11.54
7 593 MARQUES JOSE S 7 6:18:19 05:21 11.23
8 861 VENTURELLI MAXIME S 8 6:20:49 05:23 11.16
9 242 DEMIRKAZAN MIKAIL S 9 6:24:15 05:26 11.06
10 446 JACOB FRANCOIS S 10 6:25:23 05:27 11.02
11 639 NICOLAIJ CHRISTOPHE S 11 6:31:44 05:32 10.84
12 313 EISENHUTH PIERRE S 12 6:34:24 05:34 10.77
13 750 SCHOLZEN CHRISTOPHE S 13 6:35:29 05:35 10.74
14 582 MAHIA SEBASTIEN S 14 6:39:15 05:38 10.64
15 184 DE BEUKELAER TOM V1 1 6:39:32 05:39 10.63
16 668 PIERARD MICHEL V1 2 6:41:52 05:41 10.57
17 18 BAAR GRÉGORY S 15 6:43:21 05:42 10.53
18 492 KEUPPENS BENNY V1 3 6:48:18 05:46 10.40
19 12 ANDRIES MICHAEL S 16 6:48:25 05:46 10.40
20 583 MAILLEUX THIERRY V1 4 6:52:54 05:50 10.29
21 319 ESCOFIER YANNICK S 17 6:56:59 05:53 10.19
22 587 MANETTE OLIVIER V1 5 6:57:20 05:54 10.18
23 622 MOLENAAR PIM S 18 6:59:30 05:55 10.13
24 641 NIEUWENHUIS DAAN S 19 6:59:32 05:56 10.13
25 840 VAN ZUTPHEN JORT S 20 6:59:50 05:56 10.12
26 267 DEVOS JIMMY V1 6 7:00:43 05:57 10.10
27 292 DRISSI TOUFIK S 21 7:04:05 05:59 10.02
28 281 DIPÈDE DOMINIQUE V1 7 7:05:00 06:00 10.00
29 682 PIRONT BENOIT S 22 7:05:24 06:00 9.99
30 302 DUJARDIN VINCENT S 23 7:05:45 06:01 9.98
31 666 PETRIC STELLA A 1 7:07:13 06:02 9.94
32 417 HEIRBAUT ARNE S 24 7:08:18 06:03 9.92
33 187 DE CLERCK JAN S 25 7:10:32 06:05 9.87
34 212 DEBATTY HERVÉ V1 8 7:12:55 06:07 9.81
35 509 LACROSSE WILLIAM S 26 7:16:01 06:09 9.74
36 425 HENRIET NICOLAS S 27 7:17:46 06:11 9.70
37 127 CHAPA BENJAMIN V1 9 7:17:53 06:11 9.70
38 1018 VENGELS HENING S 28 7:18:03 06:11 9.70
39 860 VANWYNSBERGHE MATTHIAS S 29 7:18:41 06:12 9.68
40 443 HUBY FABIEN S 30 7:19:10 06:12 9.67
41 396 HADIUK JEROME S 31 7:20:21 06:13 9.65
42 643 NOEL PHILIPPE V1 10 7:21:04 06:14 9.63
43 683 PISSENS JEREMY S 32 7:21:25 06:14 9.62
44 176 DAMBLON JOHNATHAN V1 11 7:22:36 06:15 9.60
45 820 VAN DEN BROECK TIM S 33 7:24:00 06:16 9.57
46 510 LAENEN ROBIN S 34 7:25:38 06:18 9.53
47 849 VANDEVANDEL CHRISTOPHE S 35 7:26:16 06:18 9.52
48 214 DEBRABANDERE LANDER V1 12 7:26:23 06:18 9.52
49 284 DOAT PIERRE V2 1 7:26:45 06:19 9.51
50 672 PIETER-JAN VANDEPUTTE S 36 7:27:51 06:20 9.49
51 171 CUVELIER ARNAUD S 37 7:29:50 06:21 9.44
52 868 VERLEE DIDIER S 38 7:31:26 06:23 9.41
53 200 DE NAYER JAN S 39 7:31:29 06:23 9.41
54 93 BREUER MARC V1 13 7:31:33 06:23 9.41
55 569 LIAGRE SYLVAIN V1 14 7:32:08 06:23 9.40
56 631 MULLER JAN V2 2 7:32:19 06:23 9.39
57 862 VERDONKSCHOT LUUK S 40 7:32:47 06:24 9.38
58 115 CARON CHRISTOPHE S 41 7:33:41 06:24 9.36
59 189 DE COCK KIM S 42 7:33:58 06:25 9.36
60 461 JASPAR JULIEN S 43 7:35:19 06:26 9.33
61 902 WIJNANDS BART V1 15 7:35:28 06:26 9.33
62 901 WIJMA WILLEM S 44 7:35:30 06:26 9.33
63 71 BONHOMME JEAN-ROCH S 45 7:36:13 06:27 9.31
64 102 BRUNIN BENJAMIN S 46 7:36:51 06:27 9.30
65 137 CHOUMILLE LAURENT V1 16 7:36:59 06:27 9.30
66 974 JURAS JULIEN S 47 7:38:58 06:29 9.26
67 264 DETRAIT HUGUES S 48 7:40:05 06:30 9.23
68 528 LAOUREUX DENIS V1 17 7:40:48 06:30 9.22
69 905 WILLEMET MAXIME S 49 7:41:01 06:31 9.22
70 818 VAN DEN BOSSCHE DAVID V1 18 7:41:04 06:31 9.21
71 89 BRACQ MEHDI S 50 7:41:18 06:31 9.21
72 355 GAYE JEAN-FRANÇOIS V1 19 7:41:33 06:31 9.20
73 751 SCHOUMACKERS BENOÎT V1 20 7:43:10 06:32 9.17
74 358 GENDEBIEN DAVID V1 21 7:43:46 06:33 9.16
75 700 PROES MICKAEL S 51 7:44:21 06:33 9.15
76 816 VAN DAMME OLIVIER V1 22 7:44:38 06:34 9.14
77 382 GREGOIRE THIBAUD S 52 7:45:33 06:35 9.13
78 793 THUNUS ANTHONY S 53 7:45:56 06:35 9.12
79 1020 WOUTERS STEFAAN V1 23 7:46:00 06:35 9.12
80 828 VAN ENDERT EDDY S 54 7:46:26 06:35 9.11
81 246 DEN HARTOG PASCAL S 55 7:46:55 06:36 9.10
82 722 REUL BENEDICTE D 1 7:47:09 06:36 9.09
83 659 PEELEN ANTHONY S 56 7:47:14 06:36 9.09
84 250 DENOYELLE PASCAL V1 24 7:47:16 06:36 9.09
85 410 HAZARD GAËTAN S 57 7:47:19 06:36 9.09
86 740 SALMON ARNAUD S 58 7:47:24 06:36 9.09
87 856 VANHERLE DIETER S 59 7:47:35 06:36 9.09
88 811 VAN BAEL DAVY S 60 7:47:59 06:37 9.08
89 24 BASTIAENS WIM V1 25 7:50:14 06:38 9.03
90 522 LAMBRECHT PIERRE V1 26 7:51:19 06:39 9.01
91 923 ZIGADLO MICHAEL V1 27 7:51:34 06:40 9.01
92 813 VAN BOGAERT DAVE S 61 7:51:51 06:40 9.00
93 765 SIMONIS FABIAN S 62 7:51:56 06:40 9.00
94 432 HEYNS CHRISTOPHE V1 28 7:52:27 06:40 8.99
95 330 FAUCONNIER JEAN-FRANCOIS V1 29 7:52:30 06:40 8.99
96 222 DEFOSSA ARNOULD S 63 7:52:36 06:40 8.99
97 216 DECKERS OLIVIER S 64 7:53:29 06:41 8.97
98 604 MATHIJS JIMMY V1 30 7:53:52 06:42 8.97
99 469 JOBKEN OLIVIER S 65 7:54:13 06:42 8.96
100 759 SEVENS QUENTIN S 66 7:54:18 06:42 8.96
101 233 DELEU KURT V1 31 7:54:28 06:42 8.95
102 795 TILMANT GRÉGOIRE S 67 7:54:46 06:42 8.95
103 769 SISTERMANNS ELMAR V2 3 7:55:09 06:43 8.94
104 588 MANNETSTATTER ANGELO S 68 7:56:48 06:44 8.91
105 544 LEGROS FRÉDÉRIC V1 32 7:56:51 06:44 8.91
106 743 SCHACHT WIM V2 4 7:57:05 06:44 8.90
107 206 DE VRIENDT SAMMIE S 69 7:57:59 06:45 8.89
108 852 VANDOORNE JEROEN S 70 7:58:10 06:45 8.88
109 771 SLEEWAEGEN JACQUES V1 33 7:58:37 06:46 8.88
110 788 TERMEER ROBBIE S 71 7:58:54 06:46 8.87
111 773 SOHIER BRUNO V1 34 7:58:59 06:46 8.87
112 953 DENIS KEVIN S 72 7:59:21 06:46 8.86
113 605 MATRAY MEHDI S 73 7:59:24 06:46 8.86
114 1002 SCHWEIZER LARS S 74 7:59:40 06:46 8.86
115 549 LEMAIRE VINCENT S 75 8:00:41 06:47 8.84
116 827 VAN DOORN RUUD V1 35 8:00:55 06:48 8.83
117 237 DELPLACE ALEXANDRE V1 36 8:01:17 06:48 8.83
118 75 BORGUET SÉBASTIEN V1 37 8:01:20 06:48 8.83
119 882 VOMOCIL MICHAL V1 38 8:01:24 06:48 8.82
120 283 DIVRY CLEMENT S 76 8:01:27 06:48 8.82
121 28 BASTIN ROBERT V2 5 8:02:49 06:49 8.80
122 887 WANTE GUILLAUME V1 39 8:03:05 06:49 8.79
123 217 DECKERS ERWIN V1 40 8:03:32 06:50 8.79
124 689 PONCIN RENAUD S 77 8:03:55 06:50 8.78
125 585 MALHERBE BENOIT S 78 8:04:08 06:50 8.78
126 830 VAN HALDEREN MAARTEN S 79 8:04:42 06:51 8.76
127 85 BOURTEMBOURG PIERROT S 80 8:04:55 06:51 8.76
128 397 HAID JÉRÉMY S 81 8:05:59 06:52 8.74
129 476 JORIS JONATHAN S 82 8:06:43 06:52 8.73
130 564 LÉTÉ PASCAL V3 1 8:07:43 06:53 8.71
131 543 LEGENDRE NINON A 2 8:08:48 06:54 8.69
132 637 NEYS XAVIER V2 6 8:09:24 06:55 8.68
133 269 DEWAEL YANNICK V1 41 8:09:46 06:55 8.67
134 1041 WANSART NICOLAS S 83 8:10:17 06:55 8.66
135 831 VAN HEUSDEN OLIVIER V1 42 8:11:21 06:56 8.65
136 444 HUET EMMANUEL V1 43 8:11:37 06:57 8.64
137 495 KLEISCH OLIVIER V2 7 8:12:01 06:57 8.63
138 128 CHARLES CYRILLE S 84 8:12:25 06:57 8.63
139 761 SIEBENBOUR MICHEL V2 8 8:12:59 06:58 8.62
140 467 JEWASINSKI MICHEL V1 44 8:13:02 06:58 8.62
141 573 LORENZON GREGORY V1 45 8:13:36 06:58 8.61
142 349 GALVEZ GAUTHIER S 85 8:14:01 06:59 8.60
143 231 DELBROUCK THOMAS S 86 8:14:06 06:59 8.60
144 192 DE GROOF PETER V1 46 8:17:47 07:02 8.53
145 90 BRAICA CATALIN V1 47 8:17:49 07:02 8.53
146 636 NÉMÉGAIRE LAURENT V1 48 8:17:53 07:02 8.53
147 520 LAMBION HUGUES V1 49 8:17:57 07:02 8.53
148 159 COURET BRICE V1 50 8:18:00 07:02 8.53
149 649 ORISTIL ALEXANDRE V1 51 8:18:04 07:02 8.53
150 735 RUBEL THOMAS S 87 8:18:08 07:02 8.53
151 266 DEVOLDRE DIRK V2 9 8:18:13 07:02 8.53
152 662 PERIN LOGAN S 88 8:18:51 07:03 8.52
153 796 TIMMERMAN DAVID S 89 8:19:04 07:03 8.51
154 363 GERON GILLES S 90 8:19:34 07:03 8.50
155 213 DEBAY BLAISE V1 52 8:19:40 07:03 8.50
156 726 ROEMANS SYLVAIN S 91 8:20:17 07:04 8.49
157 645 NOKIN XAVIER V2 10 8:20:23 07:04 8.49
158 577 LOUVIAUX CINDY D 2 8:20:50 07:04 8.48
159 381 GREGOIRE ETIENNE V1 53 8:21:17 07:05 8.47
160 332 FERON LAURENT V1 54 8:21:20 07:05 8.47
161 451 JAMAR CHRISTOPHE S 92 8:21:29 07:05 8.47
162 205 DE ROUCK DIMITRI S 93 8:21:33 07:05 8.47
163 554 LENAERTS PETER V1 55 8:21:46 07:05 8.47
164 642 NISEN ERIC S 94 8:21:58 07:05 8.46
165 101 BRUGGEMAN PIETER-JAN S 95 8:22:03 07:05 8.46
166 126 CHALON JACKY V2 11 8:22:10 07:06 8.46
167 718 RENSON PATRICE V1 56 8:22:23 07:06 8.46
168 911 WINKLER TILL V1 57 8:22:31 07:06 8.45
169 894 WEIDNER SVEN S 96 8:22:35 07:06 8.45
170 91 BRAUN WOLFGANG V3 2 8:23:03 07:06 8.45
171 132 CHAVANNE BERTRAND V1 58 8:23:25 07:07 8.44
172 652 PACYNA LAURA D 3 8:23:38 07:07 8.44
173 708 RAUSIN BRICE S 97 8:23:41 07:07 8.43
174 465 JÉRÔME OLIVIER V1 59 8:24:13 07:07 8.43
175 936 BYIERS BRUCE V1 60 8:24:55 07:08 8.41
176 16 AUDRAN FREDERIC V1 61 8:25:02 07:08 8.41
177 26 BASTIEN GUILLAUME V1 62 8:25:12 07:08 8.41
178 858 VANMOLECOT STEVEN S 98 8:25:18 07:08 8.41
179 39 BENGLER NATACHA A 3 8:26:14 07:09 8.39
180 848 VANDERSANDEN MATHIEU S 99 8:26:21 07:09 8.39
181 822 VAN DEN ESSEN TON V2 12 8:26:26 07:09 8.39
182 208 DE WEERT JOHAN V1 63 8:26:34 07:09 8.39
183 98 BRONSART AUDREY D 4 8:26:45 07:09 8.38
184 86 BOUSSAUW NICO V1 64 8:26:52 07:10 8.38
185 932 BOYDENS WIM V1 65 8:27:19 07:10 8.37
186 425 HENRIET NICOLAS S 100 8:27:21 07:10 8.37
187 144 CLUTS TOM S 101 8:27:22 07:10 8.37
188 572 LOMBA EMMANUEL S 102 8:27:50 07:10 8.37
189 419 HELLA LUC V1 66 8:27:57 07:10 8.36
190 95 BRÉVER JEAN-FRANÇOIS V1 67 8:28:08 07:11 8.36
191 739 SALMIN LOÏC S 103 8:28:16 07:11 8.36
192 343 FRANÇOIS THIBAUT S 104 8:28:21 07:11 8.36
193 147 COLLIN PIERRE V1 68 8:28:31 07:11 8.35
194 180 DAUBY PIERRE S 105 8:28:47 07:11 8.35
195 261 DESTON FRANCK V1 69 8:29:51 07:12 8.33
196 576 LOUON VINCENT S 106 8:30:29 07:13 8.32
197 282 DISTEQUE SAMUEL V1 70 8:30:50 07:13 8.32
198 104 BRUYÈRE DIDIER V1 71 8:31:36 07:14 8.30
199 558 LEROY MATHIEU V1 72 8:31:50 07:14 8.30
200 45 BERTRAND VALERY S 107 8:31:53 07:14 8.30
201 32 BEAUCHARD CEDRIC V1 73 8:32:14 07:14 8.29
202 240 DELWARTE LAURENT V1 74 8:32:52 07:15 8.28
203 497 KOOLS MARTIJN S 108 8:32:59 07:15 8.28
204 34 BECKER JONATHAN S 109 8:33:15 07:15 8.28
205 1007 SPEDALOTTO SÉBASTIEN S 110 8:33:26 07:15 8.27
206 727 ROMNÉE AMBROISE S 111 8:34:00 07:16 8.27
207 420 HENDRICK JULIEN S 112 8:34:19 07:16 8.26
208 654 PALM RAPHAËL S 113 8:34:22 07:16 8.26
209 921 ZARRO LIONEL V1 75 8:34:26 07:16 8.26
210 298 DUCHENNE CYRILLE S 114 8:34:28 07:16 8.26
211 505 KUYPERS ERWIN V1 76 8:34:34 07:16 8.26
212 695 POULAIN PASCAL V1 77 8:34:36 07:16 8.26
213 55 BIHAIN BERNARD V1 78 8:34:56 07:16 8.25
214 433 HOEKS TOM S 115 8:35:35 07:17 8.24
215 799 TODEA RELI V1 79 8:35:54 07:17 8.23
216 571 LION CEDRIC V1 80 8:36:20 07:18 8.23
217 880 VISSE STÉPHANE V2 13 8:36:25 07:18 8.23
218 539 LEDUC JÉRÔME S 116 8:36:28 07:18 8.23
219 305 DUMONT DE CHASSART ALBAN S 117 8:36:52 07:18 8.22
220 744 SCHELDEMAN BJORN S 118 8:36:59 07:18 8.22
221 270 DEWEZ GEOFFROY S 119 8:38:00 07:19 8.20
222 259 DESIDERI COLIN V1 81 8:38:03 07:19 8.20
223 50 BEULEN BRUNO S 120 8:38:34 07:19 8.19
224 448 JACOBS JAN S 121 8:38:39 07:20 8.19
225 524 LANGENFELD HERVÉ S 122 8:39:19 07:20 8.18
226 579 LUPSIN DOMINIQUE V1 82 8:39:21 07:20 8.18
227 56 BISKUPSKI MICHAËL V1 83 8:39:23 07:20 8.18
228 656 PANDELAERS ADRIAAN S 123 8:39:50 07:21 8.17
229 364 GERSDORFF FREDERIC V1 84 8:39:52 07:21 8.17
230 839 VAN STIPHOUT MAARTEN S 124 8:40:08 07:21 8.17
231 114 CARBONNIER LAURENT V1 85 8:40:10 07:21 8.17
232 400 HANSEN NICOLAS S 125 8:40:13 07:21 8.17
233 478 JOZIASSE GIEL V2 14 8:41:18 07:22 8.15
234 15 AUDENAERT BART S 126 8:41:57 07:22 8.14
235 218 DECLERCQ STEVEN V1 86 8:42:21 07:23 8.13
236 376 GOEDERS CHARLES ETIENNE V1 87 8:42:49 07:23 8.13
237 561 LESCALIEZ ARNAUD V1 88 8:44:04 07:24 8.11
238 17 AUGUSTYNS HANS S 127 8:44:56 07:25 8.09
239 787 TEICHER MATHIEU V1 89 8:45:12 07:25 8.09
240 394 GYSSENS DAVID S 128 8:45:25 07:25 8.09
241 129 CHARLET ERIC V1 90 8:45:27 07:25 8.09
242 603 MASSON CELINE D 5 8:45:40 07:25 8.08
243 5 ALBERT DANY V1 91 8:45:50 07:26 8.08
244 441 HOUSIAUX DIMITRI S 129 8:45:53 07:26 8.08
245 135 CHEVALIER MICHAÊL V1 92 8:46:05 07:26 8.08
246 914 WOUTERS TOM V1 93 8:46:33 07:26 8.07
247 247 DENIS PIERRE S 130 8:46:54 07:26 8.06
248 275 DIAZ CARLOS V2 15 8:47:19 07:27 8.06
249 366 GHUISOLAND ALFRED V1 94 8:47:48 07:27 8.05
250 403 HARDY MARC V1 95 8:48:40 07:28 8.04
251 53 BIERMANS PHILIPPE V1 96 8:49:10 07:28 8.03
252 303 DULBECCO LAURENT V1 97 8:50:18 07:29 8.01
253 475 JORDENS ROMAIN S 131 8:50:32 07:30 8.01
254 736 RYSENAER MARC V1 98 8:50:51 07:30 8.00
255 336 FISCHER THOMAS V1 99 8:50:54 07:30 8.00
256 188 DE CLIPPELEER STEFAN V1 100 8:51:13 07:30 8.00
257 620 MIÉVIS KEVIN S 132 8:52:01 07:31 7.99
258 1033 LACROIX ANDRE V1 101 8:52:13 07:31 7.98
259 23 BARTOSZUK ROMAN V1 102 8:52:46 07:31 7.97
260 80 BOUCETTA WANESSE S 133 8:52:52 07:32 7.97
261 857 VANHULST NICOLAS S 134 8:52:57 07:32 7.97
262 896 WERTZ LUC V2 16 8:53:17 07:32 7.97
263 767 SIMONS JORG V1 103 8:53:26 07:32 7.96
264 365 GHESQUIERE PATRICK V1 104 8:56:25 07:35 7.92
265 285 DOOLAEGE BART S 135 8:56:29 07:35 7.92
266 337 FISCHER BÄRBEL A 4 8:56:33 07:35 7.92
267 574 LORGE VINCENT S 136 8:56:39 07:35 7.92
268 660 PEETERS NICO S 137 8:56:43 07:35 7.92
269 716 RENOUARD LOIC S 138 8:57:09 07:35 7.91
270 915 WUIDARD JEAN-LUC V2 17 8:58:10 07:36 7.89
271 386 GROGNARD NATHAN S 139 8:58:17 07:36 7.89
272 610 MERCENIER ALAIN V1 105 8:58:21 07:36 7.89
273 851 VANDOOREN PIETJAN S 140 8:58:30 07:36 7.89
274 106 BUET THOMAS S 141 8:59:39 07:37 7.87
275 881 VLEMINCKX MATTHIAS S 142 8:59:54 07:38 7.87
276 916 WULLENS REGIS V1 106 9:01:35 07:39 7.84
277 368 GIELEN FRANK S 143 9:01:41 07:39 7.84
278 470 JODOGNE LUCAS S 144 9:02:00 07:39 7.84
279 11 ANDRES CHRISTOPH S 145 9:02:04 07:39 7.84
280 721 REQUENA MAATS JOSÉ VICENTE V1 107 9:02:11 07:39 7.84
281 234 DELHAISE JEAN-MARTIN S 146 9:02:23 07:40 7.83
282 872 VERMOESEN PHILIPPE V1 108 9:02:34 07:40 7.83
283 775 SPIJKERS RICHARD V1 109 9:02:39 07:40 7.83
284 737 SACRE BENOIT V2 18 9:02:43 07:40 7.83
285 379 GORIS RIK S 147 9:03:03 07:40 7.82
286 321 EULAERTS KEVIN S 148 9:03:07 07:40 7.82
287 832 VAN HULLEBUS GIOVANNI S 149 9:04:32 07:41 7.80
288 951 DELPLACE JEREMY S 150 9:05:42 07:42 7.79
289 525 LANGLET GEOFFREY S 151 9:05:48 07:43 7.78
290 411 HÉBRARD FRÉDÉRIC V1 110 9:06:39 07:43 7.77
291 371 GILLARD MICHAËL V1 111 9:07:14 07:44 7.76
292 699 PROCUREUR MICHAEL S 152 9:07:40 07:44 7.76
293 120 CAUCHE CÉDRIC S 153 9:07:57 07:44 7.75
294 223 DEGROOTE BART V1 112 9:08:02 07:44 7.75
295 738 SALDEN DIETER V1 113 9:08:29 07:45 7.75
296 312 EGGERMONT HILDE A 5 9:08:32 07:45 7.74
297 1028 JAZZAG TAHAR V2 19 9:08:38 07:45 7.74
298 922 ZHANG HUANYU D 6 9:09:13 07:45 7.74
299 823 VAN DER HEIJDEN PETER V1 114 9:09:50 07:46 7.73
300 768 SIMONSE EVA D 7 9:09:52 07:46 7.73
301 33 BEAUPAIN OLIVIER S 154 9:09:54 07:46 7.73
302 291 DRIESSEN RAYMOND V1 115 9:09:59 07:46 7.72
303 174 DAHMEN CAROLE A 6 9:10:12 07:46 7.72
304 720 RENSONNET DIDIER V1 116 9:10:22 07:46 7.72
305 178 DANIELS JEAN-MARC V2 20 9:10:32 07:47 7.72
306 801 TORMEN ALARIC S 155 9:10:34 07:47 7.72
307 781 STROOBANT CHRISTOPHE S 156 9:10:50 07:47 7.71
308 812 VAN BENEDEN LIONEL S 157 9:11:16 07:47 7.71
309 325 FAFCHAMPS CLAUDINE A 7 9:12:17 07:48 7.69
310 602 MASSON JEAN S 158 9:12:47 07:48 7.69
311 819 VAN DEN BOSSCHE BRUNO V1 117 9:13:01 07:49 7.68
312 260 DESSAMBRE NICOLAS S 159 9:13:05 07:49 7.68
313 341 FRAITURE THOMAS S 160 9:13:08 07:49 7.68
314 1030 WERBONAT JENS V1 118 9:13:11 07:49 7.68
315 487 KAMINSKY PETER V1 119 9:13:14 07:49 7.68
316 14 ASSELIN PHILIPPE V2 21 9:13:17 07:49 7.68
317 893 WEEMAES MICHIEL V1 120 9:13:20 07:49 7.68
318 254 DEROO JEROEN V1 121 9:13:23 07:49 7.68
319 548 LELIE JOHAN V1 122 9:13:27 07:49 7.68
320 37 BEKE DAVID S 161 9:13:45 07:49 7.67
321 460 JASPAR STEVE V1 123 9:14:10 07:50 7.67
322 702 QUINTIN ALEXANDRE S 162 9:14:14 07:50 7.67
323 613 MEUNIER VINCENT S 163 9:14:32 07:50 7.66
324 630 MULLER EMMANUEL V1 124 9:14:48 07:50 7.66
325 278 DIELS HANNE D 8 9:14:52 07:50 7.66
326 156 CORNUAU DAMIEN V1 125 9:15:11 07:50 7.65
327 618 MICHEL GILDAS S 164 9:15:14 07:51 7.65
328 715 RENAUX THIERRY S 165 9:15:23 07:51 7.65
329 416 HEINRICHS FRANÇOIS S 166 9:15:42 07:51 7.64
330 143 CLICHE CHRISTOPHE V2 22 9:15:50 07:51 7.64
331 296 DUCARME YANNICK V1 126 9:16:43 07:52 7.63
332 183 DE BAENST BAUDOUIN V1 127 9:16:48 07:52 7.63
333 692 POSKIN JULIEN S 167 9:17:06 07:52 7.63
334 907 WILLEMS BRAM S 168 9:17:39 07:53 7.62
335 676 PIRET OLIVIER V1 128 9:18:32 07:53 7.61
336 829 VAN HAECKE CÉDRIC S 169 9:18:34 07:53 7.61
337 684 PITOU GABRIEL V1 129 9:18:45 07:53 7.60
338 685 PITZ AUDREY D 9 9:19:52 07:54 7.59
339 94 BREULS DANYEL V1 130 9:20:08 07:55 7.58
340 7 ALLAËRT CLAUDE V2 23 9:20:27 07:55 7.58
341 754 SCHULTE GREGORY V2 24 9:20:33 07:55 7.58
342 122 CELIS PAUL V3 3 9:20:44 07:55 7.58
343 314 ELICH ERIC V1 131 9:20:46 07:55 7.58
344 632 MÜLLER THOMAS V1 132 9:20:55 07:55 7.57
345 789 THEEUWEN ROLAND V1 133 9:21:03 07:55 7.57
346 753 SCHROEDER SEVAY A 8 9:21:07 07:55 7.57
347 875 VERSTICHEL ALAIN V2 25 9:21:09 07:56 7.57
348 1035 NYSSEN PIERRE V1 134 9:21:11 07:56 7.57
349 884 VRANCKX WALTER V2 26 9:21:50 07:56 7.56
350 709 RAUSIN BERNARD V2 27 9:21:57 07:56 7.56
351 76 BORTOLOTTI EMMANUEL V1 135 9:22:01 07:56 7.56
352 694 POSTELMANS JURGEN V1 136 9:22:21 07:57 7.55
353 1029 OLLEVIER MARIO V2 28 9:22:25 07:57 7.55
354 224 DEHUYSSER WOUTER S 170 9:22:36 07:57 7.55
355 331 FEDSOSEEW HERVÉ V1 137 9:22:53 07:57 7.55
356 268 DEVRIENDT WOUTER V1 138 9:23:00 07:57 7.55
357 10 ANDRAE WOLFRAM V1 139 9:23:31 07:58 7.54
358 803 TOUPIN TRINCKVEL HUGO S 171 9:24:12 07:58 7.53
359 1003 SEYNAEVE LAURENT V1 140 9:24:17 07:58 7.53
360 810 VALENTINY CLAIRE D 10 9:24:34 07:58 7.52
361 168 CROS JEREMY S 172 9:24:59 07:59 7.52
362 123 CENNÉ YVES V1 141 9:26:43 08:00 7.50
363 879 VINCENT NICOLAS V1 142 9:27:36 08:01 7.48
364 899 WIBOU GAETAN S 173 9:27:41 08:01 7.48
365 152 COREMANS THOMAS V1 143 9:27:53 08:01 7.48
366 117 CARRÉ CÉDRIC V1 144 9:27:55 08:01 7.48
367 165 CREPIN PHILIPPE V3 4 9:28:02 08:01 7.48
368 357 GELDERMANS MANOLIS V1 145 9:28:08 08:01 7.48
369 449 JACQUEMIN MANUEL V1 146 9:29:25 08:03 7.46
370 806 TROISFONTAINES DELPHINE A 9 9:29:27 08:03 7.46
371 52 BIELEN JEROEN V1 147 9:29:28 08:03 7.46
372 566 LEVERT JEAN-PIERRE V2 29 9:31:45 08:05 7.43
373 930 BOSMANS ERIC V1 148 9:31:49 08:05 7.43
374 586 MALOIR PHILIPPE V2 30 9:31:52 08:05 7.43
375 2 ABSIL CHRISTOPHE V1 149 9:31:59 08:05 7.43
376 244 DEMOULIN BERNARD V1 150 9:32:50 08:05 7.42
377 225 DEJACE ALAIN V2 31 9:34:03 08:06 7.40
378 245 DEMOULIN ANNE A 10 9:35:02 08:07 7.39
379 124 CHAIDRON RAPHAËL S 174 9:35:05 08:07 7.39
380 140 CLEIRENS MARIO V2 32 9:35:09 08:07 7.39
381 257 DERVILLE JULIEN S 175 9:35:41 08:08 7.38
382 535 LECLEF JULIEN S 176 9:36:09 08:08 7.37
383 151 COPPE SIGRID A 11 9:36:44 08:09 7.37
384 786 TAVENAUX ALEXANDRE V1 151 9:36:55 08:09 7.36
385 229 DELARBRE PATRICK V1 152 9:37:08 08:09 7.36
386 675 PIRARD OLIVIER V1 153 9:37:37 08:09 7.35
387 910 WILPUTTE SEBASTIEN S 177 9:37:39 08:09 7.35
388 179 DARON MICHAEL V1 154 9:37:42 08:10 7.35
389 472 JOISSAINS ERIC V2 33 9:37:45 08:10 7.35
390 1032 HEYNS XAVIER V1 155 9:38:43 08:10 7.34
391 776 SPINEUX FRANÇOIS S 178 9:39:17 08:11 7.33
392 557 LEONARDI MIKAEL S 179 9:39:46 08:11 7.33
393 873 VERSCHAEVE JEAN-BAPTISTE S 180 9:39:50 08:11 7.33
394 255 DEROUCK PHILIPPE V2 34 9:40:59 08:12 7.31
395 62 BLANCHART NICOLAS S 181 9:41:20 08:13 7.31
396 596 HOEK MARTIJN S 182 9:42:01 08:13 7.30
397 501 KRATZ JEROEN V1 156 9:42:42 08:14 7.29
398 374 GILLET FABRICE V1 157 9:42:45 08:14 7.29
399 756 SCHYNS THOMAS S 183 9:43:20 08:14 7.28
400 369 GILET ARNAUD V1 158 9:43:24 08:14 7.28
401 378 GOMBOSO MARC V3 5 9:43:38 08:15 7.28
402 883 VORSTENBOSCH MARCEL V1 159 9:45:06 08:16 7.26
403 327 FANIELLE LAURENT S 184 9:45:12 08:16 7.26
404 966 HEND MOHAMED V1 160 9:45:20 08:16 7.26
405 46 BERTREM DRIES S 185 9:45:56 08:17 7.25
406 825 VAN DER VEER PASCAL V1 161 9:46:04 08:17 7.25
407 559 LEROY REGIS S 186 9:46:11 08:17 7.25
408 906 WILLEMS GAETAN V1 162 9:46:20 08:17 7.25
409 391 GUINET BENOIT V2 35 9:46:22 08:17 7.25
410 169 CULLOT PATRICIA A 12 9:46:25 08:17 7.24
411 517 LAMBERT ERIC V1 163 9:46:28 08:17 7.24
412 438 HOPPE EDMUND V2 36 9:46:34 08:17 7.24
413 118 CASTELAIN JEAN-LUC V2 37 9:47:03 08:17 7.24
414 22 BARBULESCU ALECSANDRU S 187 9:47:07 08:18 7.24
415 592 MARÉCHAL PHILIPPE V1 164 9:47:11 08:18 7.24
416 401 HAPPART GRÉGORY V1 165 9:47:27 08:18 7.23
417 747 SCHMETZ BERNARD V2 38 9:47:36 08:18 7.23
418 51 BEVERNAEGIE CHRIS V1 166 9:47:40 08:18 7.23
419 677 PIRLOT JEAN-FRANCOIS S 188 9:47:45 08:18 7.23
420 367 GIACCHETTA STÉPHANE V1 167 9:47:52 08:18 7.23
421 434 HOET LAURIANNE D 11 9:47:58 08:18 7.23
422 418 HELLA SÉBASTIEN S 189 9:48:05 08:18 7.22
423 499 KOTLYAR NICOLAS V1 168 9:48:20 08:19 7.22
424 850 VANDEWIELE CHRISTOPH S 190 9:48:48 08:19 7.22
425 568 L'HOIR THIBAUT S 191 9:49:05 08:19 7.21
426 496 KLEVERLAAN MATTHIJS S 192 9:49:16 08:19 7.21
427 529 LARUE FABRICE V1 169 9:49:19 08:19 7.21
428 100 BROWET JOËLLE V1 170 9:49:22 08:19 7.21
429 493 KINSBERGEN ROBIN V2 39 9:49:43 08:20 7.20
430 763 SILVERANS PHILIPPE S 193 9:49:50 08:20 7.20
431 207 DE VRIES KOEN V3 6 9:50:30 08:20 7.19
432 456 JANSEN ANGÉLIQUE A 13 9:50:33 08:20 7.19
433 1040 WAGNER FRANCK V1 171 9:50:38 08:21 7.19
434 530 LATTAIGNANT STEPHANE V1 172 9:50:40 08:21 7.19
435 511 LAFFINEUSE CHRISTOPHE S 194 9:50:44 08:21 7.19
436 844 VANDENTEMPEL OLIVIER V1 173 9:50:48 08:21 7.19
437 838 VAN SCHENDEL RALPH V1 174 9:51:16 08:21 7.19
438 697 POYSAT GEORGES V2 40 9:52:58 08:22 7.16
439 673 PIGMANS WENDY D 12 9:53:07 08:23 7.16
440 210 DE WITTE JOERI V1 175 9:54:11 08:24 7.15
441 703 QUIVY DIDIER V1 176 9:54:34 08:24 7.15
442 619 MICHELET RUDY S 195 9:54:46 08:24 7.14
443 594 MARQUET VIVIEN S 196 9:54:50 08:24 7.14
444 439 HOST NICOLAS V1 177 9:55:00 08:24 7.14
445 961 FROONINCKX AUDREY D 13 9:55:23 08:25 7.14
446 621 MILLE CHRISTINE A 14 9:55:27 08:25 7.13
447 804 TRAINA CHRISTOPHE V1 178 9:55:30 08:25 7.13
448 315 ELSEN FREDERIC V1 179 9:55:32 08:25 7.13
449 680 PIRON JOHAN V1 180 9:56:21 08:25 7.12
450 924 ZNIDARSIC JOELLE A 15 9:56:28 08:25 7.12
451 387 GROGNARD RÉGIS S 197 9:57:03 08:26 7.12
452 489 KEIL YVES V1 181 9:57:23 08:26 7.11
453 957 FERNANDEZ SYLVAIN S 198 9:57:32 08:26 7.11
454 84 BOURGUIGNON NICOLAS S 199 9:58:30 08:27 7.10
455 1009 TEMMERMAN SELENA A 16 9:58:59 08:28 7.09
456 897 WIART SYLVAIN V1 182 9:59:28 08:28 7.09
457 898 WIART SEBASTIEN V1 183 9:59:30 08:28 7.09
458 59 BLAISE THOMAS S 200 9:59:31 08:28 7.09
459 304 DUMONT DE CHASSART WAUTHIER V2 41 10:00:05 08:29 7.08
460 742 SCAFF MATHIEU S 201 10:00:08 08:29 7.08
461 108 BURNIAT ETIENNE V2 42 10:00:15 08:29 7.08
462 243 DEMOULIN BRIGITTE A 17 10:00:26 08:29 7.08
463 272 DHALLEINE JONATHAN S 202 10:00:58 08:29 7.07
464 691 POSKIN THIERRY V2 43 10:02:09 08:30 7.06
465 453 JAMIN DOMINIQUE S 203 10:02:17 08:30 7.05
466 778 STANGHERLIN GREGOR V1 184 10:02:19 08:30 7.05
467 109 BUSSCHOTS FREDERIC S 204 10:02:20 08:30 7.05
468 209 DE WERGIFOSSE YVES V2 44 10:02:59 08:31 7.05
469 41 BERNARD LOLA D 14 10:03:20 08:31 7.04
470 356 GEELEN BÉATRICE A 18 10:03:22 08:31 7.04
471 903 WILK JANUSZ V2 45 10:03:27 08:31 7.04
472 392 GUIOT CÉDRIC S 205 10:03:33 08:31 7.04
473 712 REGNIER DIDIER V2 46 10:04:11 08:32 7.03
474 527 LANOY ADRIEN S 206 10:04:14 08:32 7.03
475 741 SAND OLIVIER S 207 10:04:17 08:32 7.03
476 711 RAWAY CINDY A 19 10:04:19 08:32 7.03
477 77 BOSMANS DIRK S 208 10:04:55 08:33 7.02
478 777 STAINIER ERIC V2 47 10:05:35 08:33 7.02
479 428 HERMANS STEVEN V1 185 10:06:06 08:34 7.01
480 450 JACQUES ADRIEN S 209 10:06:53 08:34 7.00
481 503 KRUMMENACKER DENIS V1 186 10:07:13 08:35 7.00
482 160 COUTAUT PASCAL V1 187 10:07:31 08:35 6.99
483 430 HERTAULT FRANCK V2 48 10:07:35 08:35 6.99
484 442 HUBERT PATRICK S 210 10:08:00 08:35 6.99
485 390 GUICHENEY BENOIT V1 188 10:10:01 08:37 6.96
486 885 WAC QUENTIN S 211 10:10:05 08:37 6.96
487 490 KENKENBERG GABRIELE A 20 10:10:11 08:37 6.96
488 624 MOMMENS FREDERIC S 212 10:10:13 08:37 6.96
489 66 BODÉLE GRÉGORY V2 49 10:10:23 08:37 6.96
490 633 MÜLLER THOMAS V2 50 10:10:40 08:37 6.96
491 794 TIELEMAN ANN A 21 10:10:50 08:38 6.95
492 455 JANSEN MARCO V1 189 10:10:57 08:38 6.95
493 968 HERBOTS KRIS V2 51 10:11:44 08:38 6.94
494 553 LEMOINE FANNY D 15 10:12:26 08:39 6.94
495 172 DACO RAPHAEL S 213 10:12:31 08:39 6.94
496 221 DEFECHEREUX OLIVIER S 214 10:13:13 08:40 6.93
497 87 BOUTET CEDRIC S 215 10:13:51 08:40 6.92
498 867 VERKUIJLEN WILCO V1 190 10:14:12 08:40 6.92
499 783 SWEERIS ESTHER A 22 10:14:18 08:41 6.92
500 833 VAN OVEN BARRY V1 191 10:14:21 08:41 6.92
501 814 VAN BROEKHOVEN ERWIN S 216 10:14:25 08:41 6.91
502 491 KESTEMONT BRUNO V2 52 10:14:29 08:41 6.91
503 537 LECOMTE MICHEL V2 53 10:14:33 08:41 6.91
504 265 DEVALERIOLA PATRICK V2 54 10:14:38 08:41 6.91
505 889 WARNOTTE MARIE A 23 10:14:49 08:41 6.91
506 1026 SAEN DOMINIQUE V2 55 10:14:54 08:41 6.91
507 19 BAERT ANN D 16 10:15:27 08:42 6.90
508 581 LUXEN REMI V2 56 10:16:04 08:42 6.90
509 808 URTUBIA NIEVES A 24 10:16:31 08:42 6.89
510 338 FLAGOTHIER CAROLINE A 25 10:16:36 08:43 6.89
511 228 DELANNER RENAUD V1 192 10:16:59 08:43 6.89
512 359 GEORGES BENOIT S 217 10:17:15 08:43 6.88
513 674 PIRARD XAVIER S 218 10:17:21 08:43 6.88
514 518 LAMBERT THOMAS S 219 10:17:24 08:43 6.88
515 859 VANVUCHELEN DENNIS S 220 10:17:32 08:43 6.88
516 800 TOLBECQ STEPHANE V1 193 10:17:47 08:44 6.88
517 458 JANSSENS PAUL V2 57 10:17:55 08:44 6.88
518 565 LEUPE JEAN-LOUIS V2 58 10:17:59 08:44 6.87
519 774 SOMJA JEAN-PHILIPPE S 221 10:18:04 08:44 6.87
520 280 DINON DOMINIQUE V2 59 10:18:15 08:44 6.87
521 239 DELVAUX JOHANN V1 194 10:18:29 08:44 6.87
522 426 HENRY CHRISTOPHE V1 195 10:18:32 08:44 6.87
523 552 LEMOINE SÉBASTIEN S 222 10:18:51 08:44 6.86
524 435 HOLLEMAN DAVE V1 196 10:18:55 08:44 6.86
525 991 NICOLAS CÉLINE A 26 10:19:09 08:45 6.86
526 249 DENOEL ALINE A 27 10:19:38 08:45 6.86
527 1037 SCHWAIGER YVES V1 197 10:19:42 08:45 6.86
528 155 CORNET DELPHINE A 28 10:19:45 08:45 6.85
529 714 RENARD DELPHINE D 17 10:19:49 08:45 6.85
530 651 OUADNOUNI M BAREK V2 60 10:19:51 08:45 6.85
531 843 VANCAUWENBERGHE WERNER V2 61 10:21:15 08:46 6.84
532 149 COLSON DAVID S 223 10:21:21 08:47 6.84
533 344 FRANCOTTE PIERRE V1 198 10:21:25 08:47 6.84
534 710 RAUW OLIVIER V2 62 10:21:37 08:47 6.83
535 655 PALUMBO PINO V3 7 10:21:57 08:47 6.83
536 755 SCHWALB REINHOLD V2 63 10:22:13 08:47 6.83
537 413 HECQ OLI CRUCHOT V2 64 10:22:27 08:47 6.83
538 113 CAPRON ETIENNE S 224 10:22:44 08:48 6.82
539 533 LEBLANC XAVIER S 225 10:22:49 08:48 6.82
540 1034 SCHROTH ANDREAS V1 199 10:24:57 08:50 6.80
541 92 BREIL-WIRTH ANDREAS S 226 10:25:05 08:50 6.80
542 984 MASSART PASCAL V1 200 10:25:22 08:50 6.79
543 288 DOUFFET RENAUD S 227 10:25:26 08:50 6.79
544 452 JAMAR FRÉDÉRIC S 228 10:25:52 08:50 6.79
545 824 VAN DER MARK MIKE V1 201 10:25:55 08:50 6.79
546 638 NIBELLE SEBASTIEN S 229 10:26:20 08:51 6.78
547 133 CHEBIL RAMI V1 202 10:26:51 08:51 6.78
548 236 DELLOYE ERIC S 230 10:27:33 08:52 6.77
549 835 VAN REEN GIJS V1 203 10:27:37 08:52 6.77
550 837 VAN ROMPAYE ERIK V1 204 10:28:21 08:52 6.76
551 904 WILLEM MARIE A 29 10:30:59 08:55 6.73
552 707 RARY DIDIER V1 205 10:31:57 08:56 6.72
553 798 TISSIER BRUNO V2 65 10:32:00 08:56 6.72
554 161 COUTURE CHRISTINE A 30 10:32:11 08:56 6.72
555 570 LIMOUSIN RAPHAEL V1 206 10:32:20 08:56 6.72
556 271 DHAINAUT JEROME V1 207 10:32:32 08:56 6.72
557 154 CORMANN BÉATRICE A 31 10:32:41 08:56 6.71
558 152 COREMANS THOMAS V1 208 10:34:08 08:57 6.70
559 687 POINT MICHAEL V1 209 10:34:11 08:57 6.70
560 513 LAHTI LAURA A 32 10:34:14 08:57 6.70
561 612 MESSA DANY A 33 10:34:17 08:57 6.70
562 72 BONIVER FREDERIC V1 210 10:34:47 08:58 6.69
563 408 HAUBRECHTS VALERIE A 34 10:34:50 08:58 6.69
564 855 VANHALST SVEN S 231 10:36:19 08:59 6.68
565 483 KAISER PHILIPP S 232 10:36:27 08:59 6.67
566 40 BERNARD QUENTIN S 233 10:37:00 09:00 6.67
567 9 ANCIAUX FRÉDÉRIC S 234 10:37:05 09:00 6.67
568 607 MAZZAGLIA PIETRO V1 211 10:37:10 09:00 6.67
569 322 EVRARD YVES V1 212 10:38:18 09:01 6.66
570 766 SIMONIS PAUL-JACQUES S 235 10:38:47 09:01 6.65
571 139 CIULLA JOSEPH V2 66 10:39:16 09:02 6.65
572 628 MORIS LAURENT V1 213 10:39:18 09:02 6.65
573 627 MORELLE PIERRE V1 214 10:39:35 09:02 6.64
574 464 JENNEN PATRICK V2 67 10:40:06 09:02 6.64
575 329 FARDEL EDDY V1 215 10:40:54 09:03 6.63
576 886 WALLART CHRISTOPHE V2 68 10:40:58 09:03 6.63
577 82 BOURGARD GREGORY S 236 10:41:15 09:03 6.63
578 43 BERODE JÉRÔME V1 216 10:42:20 09:04 6.61
579 306 DUMOULIN JEAN-LUC V1 217 10:42:23 09:04 6.61
580 575 LORPHÈVRE ERIC V1 218 10:43:00 09:05 6.61
581 138 CHRZANOWSKI JEAN-FRANCOIS V1 219 10:43:02 09:05 6.61
582 112 CANIVET DENIS V1 220 10:43:05 09:05 6.61
583 57 BISSOT ERIC V1 221 10:43:59 09:06 6.60
584 912 WITTEVRONGEL CHRISTOPHE V1 222 10:44:44 09:06 6.59
585 431 HEUSCHLING OLIVIER V1 223 10:44:47 09:06 6.59
586 263 DETHIER JEAN-FRANCOIS V1 224 10:45:24 09:07 6.58
587 422 HENDRICKX HARRIE V3 8 10:46:09 09:08 6.57
588 847 VANDERMISSEN PATRICIA A 35 10:47:22 09:09 6.56
589 989 MIGUEL DIOGO V2 69 10:48:15 09:09 6.55
590 693 POSKIN FRANÇOIS S 237 10:48:26 09:09 6.55
591 723 REY LAETITIA D 18 10:49:13 09:10 6.54
592 436 HONGNE STEFAN V1 225 10:52:49 09:13 6.51
593 625 MONTULET STEPHAN V2 70 10:54:00 09:14 6.50
594 96 BRODEOUX ANN A 36 10:54:02 09:14 6.50
595 136 CHOFFRAY DAVID V1 226 10:54:06 09:14 6.49
596 480 JUDEX JULIEN S 238 10:57:33 09:17 6.46
597 749 SCHMITT MICHEL V1 227 10:58:29 09:18 6.45
598 841 VANBELLINGEN HANS V1 228 10:58:46 09:18 6.45
599 1019 WOLTÈCHE HERVÉ S 239 10:58:54 09:18 6.45
600 4 ALBERT GEOFFROY V1 229 10:58:56 09:18 6.45
601 782 SUSTRONCK ELISABETH D 19 10:58:58 09:18 6.45
602 201 DE NEEF KRISTOF V1 230 10:59:40 09:19 6.44
603 393 GUNS GLENN S 240 10:59:44 09:19 6.44
604 274 DI MARCO CLAUDIO V1 231 11:00:02 09:19 6.44
605 116 CARRÉ CLAUDE V1 232 11:00:05 09:19 6.44
606 83 BOURGOIS MICHAEL V1 233 11:00:25 09:20 6.43
607 353 GASSIER RACHEL D 20 11:01:16 09:20 6.42
608 748 SCHMIDT STEPHAN V1 234 11:03:22 09:22 6.40
609 519 LAMBILLON QUENTIN S 241 11:03:44 09:22 6.40
610 175 D'ALIGNY GÉRAUD S 242 11:03:47 09:22 6.40
611 21 BALBEUR JEAN-FRANÇOIS V1 235 11:03:51 09:23 6.40
612 913 WOUTERS ROB V1 236 11:08:11 09:26 6.36
613 347 FUMIERE OLIVIER S 243 11:09:19 09:27 6.35
614 647 NOVITSKY SERGEY V1 237 11:09:23 09:27 6.35
615 538 LECOMTE FLORENT V1 238 11:09:32 09:27 6.35
616 277 DIDIER ARNAUD V1 239 11:09:36 09:27 6.34
617 944 DASNOIS JEROME V1 240 11:09:40 09:27 6.34
618 195 DE LAET JAN V2 71 11:09:45 09:28 6.34
619 865 VERHAEVERT BART V1 241 11:09:57 09:28 6.34
620 352 GASPAR VALÉRIE D 21 11:10:34 09:28 6.34
621 340 FOURNY PATRICE V1 242 11:10:36 09:28 6.34
622 308 DUPONT MARIO V1 243 11:10:46 09:28 6.33
623 671 PIERLOT NICOLAS V1 244 11:10:48 09:28 6.33
624 373 GILLET PHILIPPE S 244 11:10:50 09:28 6.33
625 556 LÉONARD THIERRY S 245 11:10:52 09:28 6.33
626 333 FETTWEIS THIERRY V2 72 11:11:09 09:29 6.33
627 47 BERVOETS FERRY V2 73 11:11:12 09:29 6.33
628 580 LUX ARNO V2 74 11:14:08 09:31 6.30
629 779 STATSYNS JEAN-FRANÇOIS V2 75 11:14:42 09:32 6.30
630 545 LEHMANN THOMAS S 246 11:14:46 09:32 6.30
631 1 ABAD LAMAS PATRICIA A 37 11:15:50 09:33 6.29
632 328 FANTIN GAETANO V1 245 11:16:20 09:33 6.28
633 563 LÉTÉ PASCAL V2 76 11:16:23 09:33 6.28
634 616 MEWES MICHAEL V2 77 11:16:26 09:33 6.28
635 635 MUSIN RENAUD V1 246 11:16:36 09:33 6.28
636 678 PIRLOT BERNARD S 247 11:16:48 09:34 6.28
637 406 HASTIR EMILIEN S 248 11:18:54 09:35 6.26
638 273 DI MARCO SESTO V1 247 11:19:32 09:36 6.25
639 177 DANDOIS FLORENCE A 38 11:25:34 09:41 6.20
640 299 DUCROCQ PATRICE V2 78 11:25:51 09:41 6.19
641 310 DUQUESNE SOPHIE A 39 11:26:36 09:42 6.19
642 107 BURNIAT OLIVIER S 249 11:27:28 09:43 6.18
643 764 SIMON CLAUDE BABOU A 40 11:28:27 09:43 6.17
644 24 BASTIAENS WIM V1 248 11:28:30 09:43 6.17
645 466 JESSA JOHAN V1 249 11:30:03 09:45 6.16
646 162 COUVREUR CHRISTOPHE V2 79 11:37:59 09:51 6.09
647 1005 SMOL CLÉMENT S 250 11:38:53 09:52 6.08
648 681 PIRONNET ERIC V2 80 11:39:06 09:52 6.08
649 164 CREPIN EDDY S 251 11:39:10 09:52 6.08
650 870 VERMEERSCH JOHNATHAN V1 250 11:39:15 09:53 6.08
651 866 VERKENNE FABIAN S 252 11:41:40 09:55 6.05
652 121 CEBULSKI BENOÎT S 253 11:43:49 09:56 6.04
653 307 DUMSER JOHANN V1 251 11:43:52 09:56 6.04
654 589 MANSSENS VALERIE A 41 11:48:27 10:00 6.00
655 1039 JORIS MICHEL V2 81 11:48:35 10:00 6.00
656 326 FALIZE EMILE V1 252 11:49:44 10:01 5.99
657 309 DUPONT SVEN V1 253 11:49:47 10:01 5.99
658 158 COUNET PIERRE V3 9 11:50:11 10:02 5.98
659 65 BODART STECY V1 254 11:51:24 10:03 5.97
660 389 GUERLUS CHRISTOPHE V2 82 11:51:48 10:03 5.97
661 324 FACQ LIDWINE A 42 11:53:22 10:05 5.96
662 163 CRÉPEL BERTRAND V2 83 11:53:32 10:05 5.95
663 646 NOTREDAME STIJN S 254 11:54:36 10:06 5.95
664 531 LAVAL FRED V1 255 11:55:10 10:06 5.94
665 836 VAN ROMPAEY PETER V1 256 11:56:20 10:07 5.93
666 482 JURKOWSKI RAPHAEL V1 257 11:56:49 10:07 5.93
667 663 PERIN CHRISTOPHER S 255 11:56:54 10:07 5.93
668 595 MARQUET JORDANE S 256 11:58:53 10:09 5.91
669 547 LELARGE SANDY V1 258 11:58:56 10:09 5.91
670 802 TORZECKI STÉPHANE V1 259 11:58:58 10:09 5.91
671 8 ANCIAUX LÉON-MICHEL V2 84 11:59:11 10:09 5.91
672 686 POCSA GABRIELA D 22 11:59:24 10:10 5.91
673 626 MOREL PHILIPPE V2 85 11:59:43 10:10 5.90
674 388 GRUSELLE JONATHAN V1 260 12:00:10 10:10 5.90
675 316 EMPAIN DANIEL V1 261 12:00:12 10:10 5.90
676 360 GEORGES BORIS S 257 12:02:23 10:12 5.88
677 481 JUDEX JEAN-MICHEL V2 86 12:04:49 10:14 5.86
678 142 CLÉRIN LAURENT V2 87 12:06:08 10:15 5.85
679 25 BASTIEN BENOIT V1 262 12:06:12 10:15 5.85
680 909 WILLEMS JÉRÔME S 258 12:09:02 10:18 5.83
681 908 WILLEMS BRUNO V3 10 12:09:11 10:18 5.83
682 445 JABAS BERNARD V2 88 12:09:13 10:18 5.83
683 758 SERVAIS JEAN-MARC V1 263 12:12:08 10:20 5.80
684 477 JOSKIN YANNICK S 259 12:12:12 10:20 5.80
685 986 MESSIAEN BENOIT V1 264 12:13:40 10:22 5.79
686 70 BOLSEE EVELYNE A 43 12:14:14 10:22 5.79
687 103 BRUTINEL MURIEL D 23 12:14:25 10:22 5.78
688 504 KUPPER ROLAND S 260 12:15:37 10:23 5.78
689 199 DE MORAIS MARCUS V1 265 12:15:42 10:23 5.77
690 414 HEIJNEN THOMAS S 261 12:19:07 10:26 5.75
691 826 VAN DIJK JOANNE D 24 12:19:25 10:27 5.75
692 869 VERLINDEN JEF V3 11 12:24:11 10:31 5.71
693 36 BEGYN SEBASTIEN V1 266 12:24:57 10:31 5.70
694 230 DELAUTRE VINCENT V1 267 12:26:58 10:33 5.69
695 732 ROTTIERS WALTER V3 12 12:27:02 10:33 5.69
696 929 BERON JEAN-PAUL V2 89 12:27:45 10:34 5.68
697 990 MORRONE SALVATORE V1 268 12:27:49 10:34 5.68
698 845 VANDER DONCKT PHILIPPE V3 13 12:30:20 10:36 5.66
699 615 MEUWIS KATIA A 44 12:33:02 10:38 5.64
700 516 LAMAUDIÈRE STÉPHANE V1 269 12:40:42 10:45 5.58
701 219 DECLÈVE BENOÎT S 262 12:49:02 10:52 5.52
702 474 JOLY LUDIVINE D 25 12:58:14 10:59 5.46
703 664 PÉROLAT PATRICE S 263 12:58:17 11:00 5.46
704 409 HAUCHART OLIVIER S 264 12:58:20 11:00 5.46
705 88 BOYARD AURELIEN S 265 12:58:21 11:00 5.46
706 334 FETTWEIS GAËLLE D 26 12:58:51 11:00 5.45
707 731 ROTHELIN JÉRÔME S 266 13:33:14 11:29 5.22
708 730 ROTHELIN ARNAUD S 267 13:33:14 11:29 5.22
709 153 CORMAN SANDRA A 45 13:50:00 11:43 5.12
710 295 DUBLET SERGE V3 14 14:32:19 12:19 4.87
711 601 MASSIN RUDI V1 270 14:32:39 12:19 4.87
712 252 DEPREZ VINCENT S 268 14:40:58 12:27 4.82
713 253 DEPREZ LAETITIA D 27 14:41:05 12:27 4.82
714 760 SHI QIAN D 28 14:41:19 12:27 4.82
715 372 GILLES JEAN-PIERRE V3 15 14:48:49 12:33 4.78
716 534 LEBRUN GRÉGORY S 269 14:48:55 12:33 4.78
717 29 BAUDAUX ALAIN V2 90 14:48:57 12:33 4.78